This is the latest recevied weather packets stored in our database for station/object KB8SSH. If no packets are shown the sender has not sent any weather packets the latest 10 day(s).
| Time | Temp. | Humidity | Pressure | Rain* | Wind** | Luminosity | Snow |
|---|---|---|---|---|---|---|---|
| 1777844605 | 15.56° C | 40% | 1047.4 hPa | 0 mm | - | 173 W/m² | - |
| 1777844302 | 15.56° C | 40% | 1047.4 hPa | 0 mm | - | 179 W/m² | - |
| 1777843999 | 16.11° C | 39% | 1047.4 hPa | 0 mm | - | 185 W/m² | - |
| 1777843696 | 16.11° C | 39% | 1047.7 hPa | 0 mm | - | 195 W/m² | - |
| 1777843394 | 16.11° C | 40% | 1047.7 hPa | 0 mm | - | 158 W/m² | - |
| 1777843091 | 16.11° C | 39% | 1047.7 hPa | 0 mm | - | 163 W/m² | - |
| 1777842788 | 16.11° C | 39% | 1048.1 hPa | 0 mm | - | 171 W/m² | - |
| 1777842487 | 16.11° C | 38% | 1047.7 hPa | 0 mm | - | 245 W/m² | - |
| 1777842186 | 16.11° C | 38% | 1048.1 hPa | 0 mm | - | 229 W/m² | - |
| 1777841880 | 16.67° C | 38% | 1048.1 hPa | 0 mm | - | 250 W/m² | - |
| 1777841577 | 16.67° C | 38% | 1048.1 hPa | 0 mm | - | 202 W/m² | - |
| 1777841274 | 16.67° C | 38% | 1048.1 hPa | 0 mm | - | 323 W/m² | - |
| 1777840971 | 16.67° C | 38% | 1048.1 hPa | 0 mm | - | 240 W/m² | - |
| 1777840669 | 16.67° C | 37% | 1048.1 hPa | 0 mm | - | 372 W/m² | - |
| 1777840366 | 17.22° C | 38% | 1048.1 hPa | 0 mm | - | 407 W/m² | - |
| 1777840063 | 16.67° C | 37% | 1048.4 hPa | 0 mm | - | 462 W/m² | - |
| 1777839761 | 17.22° C | 37% | 1048.1 hPa | 0 mm | - | 484 W/m² | - |
| 1777839458 | 17.22° C | 38% | 1048.4 hPa | 0 mm | - | 560 W/m² | - |
| 1777839156 | 17.22° C | 39% | 1048.1 hPa | 0 mm | - | 585 W/m² | - |
| 1777838852 | 17.22° C | 37% | 1048.4 hPa | 0 mm | - | 618 W/m² | - |
| 1777838548 | 17.22° C | 37% | 1048.4 hPa | 0 mm | - | 662 W/m² | - |
| 1777838245 | 17.22° C | 39% | 1048.1 hPa | 0 mm | - | 619 W/m² | - |
| 1777837942 | 16.67° C | 38% | 1048.8 hPa | 0 mm | - | 592 W/m² | - |
| 1777837640 | 16.67° C | 40% | 1048.8 hPa | 0 mm | - | 684 W/m² | - |
| 1777837335 | 16.11° C | 39% | 1048.8 hPa | 0 mm | - | 216 W/m² | - |
* Rain latest hour (hover to see other rain measurements)
** Current wind speed in m/s (hover to see current wind gust speed)